Location: Bullenkuhlen
(53.7689°N, 9.7495°E)
Time: 10:55:22
(UTC+00:00)

CZ-2C R/B - Pass Details

Date: 09 April 2020
Orbit: 639 x 705 km, 98.4° (Epoch: 26 May)

Event Time Altitude Azimuth Distance (km) Brightness Sun altitude
Rises 18:46:24 0° 20° (NNE) 3,091 7.2 -5.6°
Reaches altitude 10° 18:48:51 10° 30° (NNE) 2,160 6.3 -6.0°
Maximum altitude 18:53:11 35° 96° (E) 1,102 4.4 -6.6°
Drops below altitude 10° 18:57:26 10° 163° (SSE) 2,108 5.9 -7.1°
Sets 18:59:47 0° 172° (S) 3,006 6.8 -7.4°
